Temperature
27 28 28 29 29 29 29 29 29 29 29 29 29 29 28 27 27 27 26 25 24 23 22 22 21 21 21 21 21 21 21 21 21 20 19 19 19 18 18 18 17 17 17 17
28 28 28 28 28 28 28 28 29 28 28 29 28 28 28 27 27 26 25 24 24 23 22 21 21 21 21 21 21 21 21 21 21 20 20 20 19 18 18 17 17 17 16 16
28 28 28 28 28 28 28 28 28 28 28 29 28 28 28 27 26 25 24 23 23 23 22 21 21 21 21 21 21 21 21 21 20 20 19 19 18 18 18 17 17 16 16 16
28 29 28 28 28 28 28 28 28 28 28 28 28 28 28 28 27 26 24 23 23 23 22 21 21 20 20 20 20 20 20 20 20 20 19 19 18 18 18 17 17 16 16 16
28 28 28 28 28 28 28 28 28 28 27 27 28 27 28 27 26 25 25 23 22 21 21 20 20 20 20 20 20 19 20 20 19 19 19 19 18 18 17 17 17 16 16 16
28 29 29 29 28 28 28 27 27 27 28 26 27 26 27 25 23 23 23 21 20 20 19 19 19 19 19 19 19 19 19 19 19 19 18 18 18 17 17 17 16 16 16 15
28 28 29 29 28 28 28 27 26 26 26 26 27 26 25 22 21 21 20 20 19 18 18 18 18 18 18 19 19 19 19 18 18 18 18 17 17 17 17 16 16 16 16 15
26 27 28 29 28 27 27 27 25 24 25 26 26 26 24 21 20 19 18 18 17 17 16 16 15 16 16 16 17 17 17 17 17 17 17 17 17 16 16 16 16 16 15 15
27 27 28 28 28 28 27 27 27 26 26 25 26 25 21 21 20 19 18 17 16 16 15 15 14 14 14 14 14 15 15 15 15 15 15 16 16 16 15 15 15 15 15 15
28 26 28 28 28 27 27 27 26 25 24 24 25 25 25 21 20 19 18 17 16 15 15 14 13 13 13 13 13 13 13 13 14 14 14 14 15 15 15 15 15 15 15 15
28 26 27 28 27 27 26 26 26 26 25 24 24 25 21 20 19 18 17 16 15 15 15 14 13 13 12 12 12 12 12 12 12 13 13 14 14 14 14 14 14 14 14 14
27 27 26 27 27 26 26 26 25 24 24 24 24 23 19 18 18 17 16 15 15 14 14 13 13 12 12 11 11 11 11 11 11 11 12 12 12 12 13 13 13 13 13 13
26 25 25 26 26 26 26 25 25 25 24 24 24 22 18 17 17 16 15 15 14 14 13 13 12 12 11 11 11 11 10 10 11 11 11 11 11 11 11 12 12 13 13 13
25 25 25 25 25 26 25 25 24 24 24 24 23 22 18 17 16 15 14 14 13 13 12 12 11 11 10 10 10 10 10 10 10 10 10 10 10 10 11 11 11 11 12 12
25 25 26 26 26 25 24 23 23 22 22 22 21 20 18 16 15 14 13 12 12 11 11 10 10 10 10 10 10 10 10 10 10 9 10 9 9 10 10 10 10 10 11 11
24 24 25 25 25 24 22 21 21 20 20 20 19 18 16 15 14 12 12 11 11 11 11 11 11 11 11 10 10 10 10 10 9 9 9 9 9 9 9 9 10 10 10 10
25 23 24 25 24 23 21 18 19 19 18 18 18 16 15 15 13 12 12 12 12 12 12 11 11 11 10 10 10 10 10 10 9 9 9 9 9 9 9 9 9 9 9 10
23 23 23 24 24 22 17 18 17 17 17 17 16 15 14 14 13 13 13 13 12 12 11 11 11 10 10 10 10 9 9 9 9 9 9 9 9 9 9 9 9 8 9 9
22 22 23 23 23 20 17 17 17 16 17 16 15 15 15 14 14 14 14 13 12 11 11 10 10 10 10 9 9 9 9 9 9 9 9 9 9 9 9 8 8 8 8 8
22 22 23 22 21 21 16 17 16 16 16 15 15 14 14 13 14 14 13 11 11 10 10 10 10 9 9 9 9 9 8 8 8 8 8 8 8 8 8 8 8 8 8 8
22 22 21 21 20 18 16 16 17 17 16 14 14 13 13 13 13 12 11 11 10 10 10 10 9 9 9 9 8 8 8 8 8 8 8 8 7 7 7 7 7 7 8 8
20 21 20 20 19 17 16 17 16 15 14 13 13 12 12 12 11 11 11 10 10 10 10 9 9 9 8 8 8 8 8 8 7 7 7 7 7 7 7 7 7 7 7 7
19 18 19 18 18 16 15 15 14 13 13 12 12 12 11 11 11 11 10 10 10 9 9 9 9 8 8 8 8 7 7 7 7 7 6 6 6 7 7 7 7 7 7 7
18 16 17 17 17 16 15 15 14 13 12 11 11 11 11 11 10 10 10 10 9 9 9 8 8 8 8 7 7 7 7 6 6 6 6 6 6 6 6 6 7 7 7 8
18 17 17 17 17 15 15 14 13 12 11 11 11 11 10 10 10 10 9 9 9 8 8 8 8 7 7 7 7 6 6 6 6 6 6 6 6 6 6 6 6 6 7 7
17 17 16 16 15 14 14 13 12 11 11 11 10 10 10 10 10 9 9 9 8 8 8 7 7 7 6 6 6 6 6 5 5 5 5 5 5 6 6 6 6 6 6 6
Wind_Speed
4 5 2 0 2 2 3 5 4 0 2 2 0 1 2 2 2 3 3 4 5 5 6 6 7 7 7 7 6 6 5 5 4 2 1 2 2 3 3 4 4 6 7 8
5 2 3 0 2 4 4 5 4 2 1 3 2 3 2 2 1 0 1 3 4 5 6 6 6 6 7 7 6 6 6 5 4 3 2 1 2 3 4 4 4 6 7 7
2 5 2 2 3 3 3 3 2 3 2 5 6 8 7 4 2 0 1 1 2 4 5 5 5 5 5 5 5 5 4 4 4 4 3 3 3 4 3 4 4 5 7 7
1 2 1 2 1 3 2 1 4 6 9 7 5 11 6 4 3 1 1 1 1 2 2 2 2 2 2 2 3 3 4 4 4 5 4 4 4 5 5 5 5 6 6 7
1 2 3 4 2 4 3 1 5 8 10 11 9 10 3 4 1 4 4 2 2 2 2 3 3 2 2 2 3 4 4 5 5 5 5 6 7 6 5 5 6 7 7 7
4 3 4 4 1 2 2 5 7 9 9 10 4 8 3 4 6 7 8 7 6 5 5 5 5 5 5 5 5 5 5 6 5 6 6 7 8 8 8 8 8 7 6 6
3 3 2 3 6 4 6 9 8 7 6 4 1 7 2 7 7 8 8 9 9 8 8 8 9 9 8 8 7 7 6 6 7 7 8 8 9 9 10 10 8 8 8 7
3 1 1 3 6 7 7 9 9 9 8 6 5 5 6 8 7 8 9 10 11 12 12 12 12 11 11 11 11 10 8 8 8 8 8 8 9 9 9 8 9 9 8 8
4 4 2 3 6 8 8 8 8 10 12 11 7 3 7 7 7 8 10 11 13 13 13 13 13 13 13 13 13 12 11 10 10 9 9 8 8 9 10 10 10 10 8 9
5 8 6 3 4 2 6 7 6 8 8 10 7 7 4 7 5 6 8 10 11 11 12 12 12 12 12 12 12 12 12 11 11 11 10 9 9 9 10 11 11 11 11 11
7 8 9 6 6 8 4 4 6 7 8 11 13 5 6 7 5 5 7 8 9 10 11 11 11 11 11 11 12 12 12 12 11 12 11 11 11 11 11 11 11 11 11 11
4 8 10 9 1 1 4 4 5 7 9 9 13 4 8 7 5 5 6 7 8 9 10 10 11 11 11 11 11 11 11 12 12 12 12 12 12 12 13 13 12 12 12 12
3 6 11 8 4 5 4 4 6 8 10 12 14 2 7 4 3 5 7 8 9 10 11 11 11 11 12 12 12 12 12 12 12 12 12 12 12 13 14 14 14 13 13 13
4 9 12 14 12 10 8 6 6 9 11 13 12 3 4 2 4 6 9 11 12 12 12 12 12 12 12 12 12 12 12 12 12 12 12 12 12 13 14 15 15 14 14 13
4 9 11 12 10 7 5 5 6 7 8 10 10 5 3 4 7 9 11 13 13 13 12 12 12 12 13 13 13 13 13 13 13 13 13 13 13 13 14 14 15 15 14 14
3 7 10 10 5 2 2 5 4 4 5 6 7 2 3 6 9 11 13 14 15 14 14 15 16 17 17 17 17 17 17 16 15 15 16 15 15 15 14 14 14 15 15 14
4 5 7 7 1 6 2 6 7 5 5 7 8 5 8 12 13 15 16 17 16 16 18 20 20 20 19 19 19 19 19 18 18 18 18 17 16 16 15 15 15 15 14 14
4 5 5 8 8 8 6 5 6 8 6 5 5 8 11 15 17 18 19 16 16 19 22 22 21 21 21 21 20 20 20 19 19 19 19 19 18 17 16 16 15 15 14 13
3 4 6 6 10 2 5 5 8 10 11 3 6 13 17 19 21 20 14 16 20 23 23 22 22 23 22 22 21 21 21 21 20 20 20 19 19 18 18 17 16 15 14 13
2 3 6 6 10 6 5 6 7 8 7 2 13 19 20 22 21 19 21 23 24 23 22 22 23 24 23 22 21 22 22 21 21 20 20 19 19 19 19 18 17 16 14 14
7 5 6 7 6 3 5 8 10 10 10 15 18 20 21 22 21 24 25 24 24 24 24 24 24 23 22 22 22 23 23 22 21 20 20 20 19 19 19 18 17 16 15 14
6 6 5 6 5 3 6 9 9 12 15 18 20 22 23 24 25 25 26 26 26 26 26 25 23 23 22 22 22 23 23 22 21 21 20 20 19 18 17 17 16 15 15 14
3 5 5 5 4 3 6 9 11 13 17 20 20 23 24 25 26 27 26 26 26 26 26 25 25 24 23 22 22 23 23 22 21 21 21 20 19 18 17 17 16 15 13 12
2 1 3 3 3 6 11 11 12 16 19 21 22 24 25 26 28 28 27 26 26 26 25 24 25 25 24 23 23 23 23 21 20 21 20 18 18 18 17 14 14 13 12 12
2 1 3 6 6 11 10 14 18 19 21 22 23 24 25 27 28 28 27 27 26 25 25 24 24 25 26 24 23 23 21 20 20 19 18 17 16 16 15 15 13 13 13 11
1 1 4 6 9 12 17 18 20 21 22 23 25 26 26 26 28 28 26 26 26 26 25 25 25 25 25 24 23 22 21 19 18 17 16 14 14 13 13 13 13 13 15 12
Wind_Direction
240 248 237 131 270 304 250 245 236 208 19 311 244 178 115 94 126 141 155 165 170 171 163 172 174 171 165 161 168 173 174 170 189 190 234 262 277 289 291 294 311 305 303 302
219 122 46 335 211 217 217 226 223 177 60 297 274 252 167 137 132 144 198 196 182 171 168 167 164 162 160 162 165 171 176 174 186 175 201 254 299 295 306 307 307 304 307 306
44 56 55 179 173 200 212 263 288 299 286 237 263 242 201 172 167 146 251 235 206 181 169 158 157 159 160 163 172 175 176 185 198 200 212 221 235 255 271 292 293 307 308 304
78 54 289 236 201 278 252 357 298 288 280 277 270 276 210 178 175 83 25 223 198 160 145 131 139 146 164 177 192 203 209 214 217 224 237 258 279 294 308 300 302 302 295 297
301 329 295 288 331 299 337 332 285 285 281 276 250 266 223 135 113 23 20 37 50 52 47 33 21 10 349 308 267 247 243 245 243 250 258 264 271 286 293 296 293 293 292 288
290 269 287 313 308 279 231 249 254 255 264 260 255 276 238 71 13 8 26 36 41 38 30 24 16 13 357 344 324 300 282 273 267 262 264 267 279 284 290 290 295 293 294 290
269 246 227 265 265 219 249 282 283 273 258 268 135 268 69 62 41 34 35 39 39 36 30 23 15 7 360 351 342 332 319 304 294 281 273 270 273 275 271 276 284 289 295 296
299 315 10 317 308 305 293 291 288 297 298 300 242 258 105 88 71 60 53 49 44 40 33 27 20 14 8 3 357 349 340 329 323 308 294 282 276 273 274 275 284 286 288 295
307 321 349 319 306 298 290 279 302 285 279 280 273 142 135 123 86 66 56 49 42 36 33 28 24 21 16 12 8 0 354 348 340 328 316 300 290 284 285 284 274 276 278 284
302 302 312 317 266 242 295 298 266 271 286 285 278 257 200 142 93 65 50 42 37 31 28 25 22 19 16 13 10 7 4 359 351 340 330 319 309 297 287 282 281 279 279 276
286 291 298 297 309 316 284 260 282 281 284 290 293 308 67 95 79 53 43 32 25 18 15 13 11 9 6 4 2 359 356 355 350 344 335 326 319 311 300 288 282 277 274 271
294 292 298 299 322 249 279 302 288 289 292 283 285 301 87 90 76 39 20 12 6 359 358 358 357 355 353 350 347 345 344 343 340 338 332 329 324 319 311 300 291 284 276 269
294 281 290 284 204 197 243 269 284 288 284 282 288 303 107 89 52 21 1 352 344 340 341 341 342 340 337 335 332 329 328 328 326 326 326 326 325 322 316 310 301 290 279 271
283 271 281 293 308 313 295 288 291 284 284 293 301 326 129 47 344 343 342 336 329 326 326 327 326 322 321 317 315 313 311 312 312 313 314 316 318 318 317 314 309 297 285 276
275 273 280 286 295 296 309 321 318 302 308 304 320 329 52 360 331 325 323 321 316 314 311 310 308 306 304 303 302 300 300 302 303 303 302 302 303 306 309 311 311 305 292 280
279 284 288 279 278 234 102 25 354 344 335 323 312 299 36 330 319 314 311 306 302 302 302 303 305 306 306 307 305 304 301 298 296 294 295 296 297 299 302 304 306 308 301 288
273 276 285 287 212 224 190 26 2 349 337 324 315 336 332 317 314 311 308 302 301 307 311 311 311 309 307 305 305 302 300 297 294 291 290 290 292 293 295 300 304 305 304 297
307 292 280 293 283 274 78 42 2 334 312 302 303 312 314 309 308 304 297 300 309 312 312 310 309 306 304 304 302 300 298 296 293 291 289 288 287 287 289 291 294 299 298 296
3 315 304 301 300 147 111 24 354 326 306 274 303 317 316 316 310 302 316 324 315 309 307 306 305 304 303 301 301 300 297 295 293 291 290 289 288 286 286 285 287 291 293 289
48 323 308 314 305 317 72 11 336 303 287 44 325 319 318 317 310 314 324 315 308 306 305 304 304 302 300 299 299 297 295 293 292 292 291 290 287 284 282 282 283 285 285 282
329 329 339 325 313 76 34 342 319 305 333 334 321 315 313 311 307 308 309 308 307 305 303 302 301 300 299 299 297 294 292 291 291 291 289 286 283 280 277 275 275 276 277 276
334 332 343 327 317 45 11 337 334 317 317 314 314 313 311 309 306 307 308 308 307 305 304 304 302 299 298 296 294 292 291 291 291 290 287 284 281 279 277 275 272 271 272 268
358 3 344 344 352 9 333 319 316 315 312 314 314 313 311 309 308 309 309 308 307 306 305 304 301 300 299 297 295 292 293 293 290 287 284 282 280 277 274 272 269 267 263 258
123 272 298 288 292 317 317 315 318 320 316 313 312 311 311 310 309 309 309 308 307 306 306 305 303 301 299 298 296 293 293 291 288 285 283 281 278 274 271 267 265 262 259 254
81 236 294 285 312 316 317 327 324 319 315 312 312 311 311 310 309 309 308 308 308 307 306 305 302 300 299 299 296 294 292 290 287 284 282 280 275 271 269 266 261 259 257 253
149 341 321 328 335 316 316 321 319 316 315 314 313 311 311 310 309 309 309 309 308 307 306 304 303 302 301 300 297 294 292 288 284 282 278 274 271 269 265 264 261 243 242 239
Height
1506 1502 1498 1496 1495 1495 1496 1496 1497 1496 1494 1492 1493 1493 1493 1496 1496 1498 1500 1502 1504 1505 1507 1508 1510 1511 1513 1514 1516 1517 1518 1519 1520 1520 1521 1520 1520 1519 1518 1516 1514 1512 1510 1509
1502 1500 1499 1498 1498 1497 1497 1498 1497 1496 1495 1494 1494 1494 1493 1496 1497 1499 1501 1502 1504 1505 1507 1508 1509 1511 1512 1513 1515 1516 1517 1518 1518 1519 1518 1518 1517 1516 1515 1513 1511 1509 1507 1505
1500 1500 1499 1498 1498 1498 1496 1496 1497 1497 1495 1493 1494 1494 1492 1494 1498 1500 1502 1503 1504 1505 1507 1509 1510 1511 1512 1514 1515 1516 1516 1516 1517 1517 1517 1516 1515 1514 1513 1511 1509 1506 1504 1502
1499 1498 1498 1496 1497 1496 1499 1495 1497 1498 1499 1494 1496 1500 1489 1490 1494 1498 1501 1503 1504 1506 1508 1509 1511 1512 1513 1513 1514 1514 1514 1515 1515 1515 1515 1514 1513 1513 1511 1508 1506 1503 1500 1498
1500 1498 1498 1498 1497 1497 1497 1497 1496 1496 1496 1497 1492 1498 1488 1491 1496 1499 1502 1504 1506 1507 1509 1510 1511 1511 1512 1513 1513 1513 1513 1512 1512 1512 1511 1511 1511 1509 1508 1505 1502 1500 1497 1495
1498 1498 1497 1496 1496 1497 1497 1498 1496 1494 1493 1503 1496 1502 1496 1498 1506 1505 1506 1507 1508 1509 1509 1510 1510 1511 1511 1511 1511 1511 1511 1510 1509 1509 1508 1507 1506 1505 1504 1501 1499 1497 1495 1492
1501 1496 1494 1496 1495 1495 1496 1500 1507 1507 1503 1500 1494 1500 1502 1509 1512 1512 1512 1511 1511 1511 1510 1510 1510 1509 1509 1509 1508 1508 1507 1506 1505 1505 1504 1503 1502 1501 1499 1497 1496 1493 1491 1489
1508 1506 1495 1494 1496 1498 1495 1500 1512 1519 1511 1499 1493 1496 1504 1512 1515 1516 1516 1515 1514 1513 1512 1511 1511 1509 1508 1507 1505 1504 1503 1502 1501 1500 1499 1498 1497 1496 1495 1493 1491 1489 1486 1484
1505 1506 1495 1496 1496 1496 1496 1495 1492 1502 1500 1504 1493 1494 1509 1511 1515 1517 1518 1518 1517 1516 1515 1514 1512 1510 1508 1506 1504 1502 1501 1499 1497 1496 1495 1493 1492 1490 1489 1487 1485 1483 1481 1478
1499 1506 1495 1495 1495 1496 1496 1492 1497 1501 1512 1512 1498 1493 1493 1508 1513 1517 1519 1519 1519 1519 1517 1516 1514 1511 1509 1507 1504 1502 1499 1497 1494 1493 1491 1489 1487 1485 1482 1481 1479 1477 1474 1472
1497 1505 1499 1493 1496 1496 1496 1496 1497 1495 1499 1508 1508 1499 1504 1510 1516 1518 1520 1521 1520 1519 1518 1516 1514 1512 1509 1507 1504 1501 1498 1495 1492 1489 1487 1484 1482 1479 1477 1474 1472 1470 1468 1466
1499 1500 1502 1494 1492 1495 1495 1495 1497 1505 1503 1499 1502 1504 1512 1515 1518 1520 1521 1521 1520 1519 1518 1516 1514 1511 1508 1505 1502 1499 1496 1492 1489 1486 1483 1479 1476 1473 1470 1468 1465 1463 1460 1459
1501 1505 1508 1499 1497 1495 1494 1494 1496 1498 1499 1499 1502 1505 1514 1517 1519 1521 1521 1520 1519 1517 1516 1513 1511 1508 1505 1502 1499 1495 1492 1488 1485 1481 1477 1474 1470 1467 1464 1460 1457 1455 1453 1451
1504 1502 1506 1508 1499 1493 1494 1495 1497 1499 1499 1497 1495 1500 1512 1516 1519 1520 1520 1519 1517 1515 1512 1510 1507 1504 1500 1497 1493 1490 1486 1483 1479 1476 1472 1468 1465 1461 1458 1454 1451 1448 1446 1444
1503 1500 1495 1492 1490 1492 1497 1500 1501 1501 1501 1502 1500 1504 1513 1518 1521 1520 1519 1517 1514 1511 1508 1505 1502 1498 1495 1491 1488 1484 1480 1477 1473 1470 1466 1463 1460 1456 1452 1449 1445 1442 1440 1438
1502 1501 1497 1495 1491 1494 1503 1508 1507 1508 1509 1507 1508 1512 1518 1521 1521 1519 1517 1514 1510 1507 1504 1500 1497 1493 1490 1486 1482 1478 1475 1471 1467 1464 1460 1457 1454 1450 1447 1444 1440 1436 1433 1431
1498 1502 1500 1493 1493 1497 1507 1517 1515 1514 1514 1514 1512 1516 1519 1518 1518 1516 1512 1509 1505 1502 1499 1496 1492 1488 1484 1480 1476 1472 1468 1464 1461 1457 1453 1450 1447 1444 1441 1438 1434 1430 1427 1424
1504 1503 1499 1493 1496 1507 1524 1520 1521 1519 1516 1517 1518 1519 1519 1517 1514 1511 1506 1503 1500 1498 1494 1490 1486 1482 1478 1473 1469 1465 1461 1457 1453 1449 1446 1442 1439 1436 1433 1430 1427 1424 1421 1418
1507 1504 1498 1497 1497 1509 1522 1522 1523 1521 1515 1517 1519 1517 1515 1512 1509 1503 1500 1499 1497 1493 1489 1484 1480 1475 1470 1466 1462 1457 1453 1449 1445 1441 1438 1435 1432 1429 1426 1423 1420 1418 1415 1412
1505 1504 1500 1501 1507 1507 1526 1525 1525 1524 1514 1518 1518 1516 1513 1509 1502 1497 1497 1495 1491 1486 1482 1477 1472 1467 1462 1458 1454 1449 1444 1440 1436 1433 1429 1426 1423 1420 1417 1415 1413 1411 1408 1406
1506 1505 1507 1508 1509 1515 1525 1524 1522 1519 1517 1519 1518 1514 1511 1506 1502 1497 1492 1488 1484 1479 1474 1469 1464 1458 1453 1449 1445 1440 1435 1431 1428 1424 1420 1417 1414 1411 1408 1406 1404 1403 1401 1399
1514 1510 1513 1512 1515 1523 1526 1523 1523 1524 1521 1518 1515 1511 1506 1502 1496 1491 1486 1481 1476 1470 1465 1460 1455 1449 1445 1440 1435 1430 1425 1422 1418 1414 1410 1407 1404 1402 1400 1398 1396 1395 1394 1392
1518 1522 1518 1521 1523 1526 1526 1525 1525 1523 1519 1516 1511 1507 1502 1495 1490 1484 1479 1473 1467 1462 1456 1451 1445 1439 1435 1431 1426 1420 1416 1412 1408 1404 1400 1397 1395 1392 1391 1389 1387 1387 1386 1385
1524 1527 1523 1522 1522 1525 1524 1523 1522 1520 1516 1512 1507 1502 1496 1490 1483 1477 1471 1465 1459 1453 1447 1442 1436 1430 1424 1420 1415 1410 1406 1402 1398 1393 1390 1387 1385 1383 1381 1380 1379 1378 1378 1378
1523 1525 1523 1522 1523 1524 1521 1521 1519 1516 1511 1507 1501 1497 1491 1484 1477 1470 1463 1457 1450 1444 1438 1432 1426 1420 1414 1409 1404 1400 1395 1391 1387 1383 1380 1377 1375 1373 1372 1371 1370 1370 1371 1371
1524 1525 1524 1523 1525 1525 1521 1519 1515 1511 1506 1501 1495 1489 1484 1478 1470 1463 1456 1449 1442 1435 1429 1423 1417 1410 1404 1398 1393 1388 1384 1380 1376 1372 1370 1368 1366 1364 1363 1362 1362 1361 1362 1364